Location: Maddington
(51.2000°N, 1.9167°W)
Time: 22:40:59
(UTC+00:00)

NOSS 3-2 (A) - Pass Details

Date: 20 January 2021
Orbit: 783 x 1425 km, 63.4° (Epoch: 07 March)

Event Time Altitude Azimuth Distance (km) Brightness Sun altitude
Rises 06:33:55 0° 194° (SSW) 3,330 6.3 -13.2°
Reaches altitude 10° 06:36:21 10° 187° (S) 2,451 5.7 -12.8°
Maximum altitude 06:41:34 40° 119° (ESE) 1,309 4.8 -12.0°
Drops below altitude 10° 06:47:32 10° 52° (NE) 2,801 6.4 -11.2°
Sets 06:50:29 0° 46° (NE) 3,862 7.0 -10.7°
